Location: Monteux
(44.0348°N, 4.9972°E)
Time: 18:18:47
(UTC+00:00)

NOSS 3-2 (A) - Visible Passes

Search period start: 16 April 2021 00:00
Search period end: 26 April 2021 00:00
Orbit: 780 x 1427 km, 63.4° (Epoch: 31 March)

Date Brightness Start Highest point End Pass type
(mag) Time Alt. Az. Time Alt. Az. Time Alt. Az.
16 Apr 6.1 20:15:11 10° WNW 20:20:46 21° WSW 20:26:44 10° SSW visible
17 Apr 5.6 19:28:53 10° NW 19:35:40 33° WSW 19:43:02 10° S visible
18 Apr 5.1 18:43:03 10° NW 18:50:25 49° WSW 18:58:35 10° S visible
19 Apr 6.4 19:50:32 10° WNW 19:55:06 16° WSW 19:59:53 10° SW visible
20 Apr 6.1 19:03:48 10° WNW 19:10:03 26° WSW 19:16:46 10° SSW visible
22 Apr 6.7 19:26:34 10° W 19:29:22 12° WSW 19:32:15 10° WSW visible
